Theta_e
336 333 329 327 315 318 311 314 321 318 318 324 329 330 329 332 325 317 346 350 352 352 360 358 361 359 359 360 361 361 361 361 360 360 359 359 359 358 358 358 358 357 357 357 356 355 355 355 354
329 326 325 321 309 308 310 318 317 320 325 327 331 333 330 328 339 340 344 350 353 355 360 360 361 361 357 359 360 360 360 360 360 359 358 358 358 358 359 358 358 357 357 356 356 355 354 353 352
327 322 320 314 309 307 310 318 320 323 326 324 330 335 331 330 336 343 346 351 355 355 359 361 361 361 357 356 358 359 360 360 359 358 357 358 358 358 358 358 357 357 356 356 356 355 355 354 354
324 318 313 306 304 309 314 320 323 323 323 329 330 326 332 339 340 346 346 351 352 356 359 361 360 360 359 356 357 359 359 359 359 358 357 357 356 357 358 358 357 357 356 356 356 356 356 355 355
317 315 307 304 303 310 319 323 325 323 323 327 327 324 329 337 344 346 347 350 352 357 359 357 360 359 357 355 355 357 358 358 358 357 356 356 356 355 356 357 357 357 357 358 358 358 358 357 357
314 312 305 304 305 312 321 326 325 323 323 324 327 326 330 340 342 347 349 351 354 354 357 359 360 361 361 360 358 357 356 356 355 355 355 355 355 355 355 354 355 355 356 356 356 358 360 359 357
311 310 303 302 309 315 321 326 322 321 321 323 327 323 333 338 344 349 350 350 350 349 349 352 354 356 358 360 360 358 357 357 356 356 356 355 355 356 355 356 354 354 356 357 356 358 358 358 358
311 310 302 302 309 313 322 323 326 320 319 326 330 323 327 339 346 349 349 347 344 342 346 345 349 347 351 352 357 358 359 359 358 357 357 357 355 354 355 356 355 354 356 357 357 358 358 357 357
309 308 304 303 306 314 322 321 326 327 323 326 327 332 337 343 347 346 344 342 338 336 342 347 351 349 349 351 352 351 350 350 352 353 354 354 354 354 353 352 351 352 353 357 358 358 356 356 356
310 308 304 307 312 319 321 323 323 322 323 324 328 336 339 342 342 339 341 339 337 335 340 346 350 349 346 343 347 350 348 351 351 352 354 351 351 352 349 350 350 351 353 351 355 357 357 355 353
307 307 306 307 311 323 318 322 324 322 320 324 325 334 336 339 338 333 333 335 336 335 340 345 346 341 343 342 342 344 348 348 347 349 350 354 351 351 351 352 342 342 343 348 354 356 357 355 355
306 306 307 310 312 318 318 320 321 321 323 330 333 337 336 336 334 331 330 334 333 335 338 340 345 344 342 341 340 343 344 345 345 349 352 354 347 343 341 338 336 336 335 342 348 350 354 354 353
305 305 306 309 313 315 319 318 319 319 326 335 336 336 335 335 333 332 332 335 340 339 338 338 340 341 341 340 339 340 342 341 341 342 341 341 340 341 339 338 334 333 335 335 338 346 349 350 350
306 307 307 310 314 316 318 317 319 320 328 333 334 334 334 332 331 331 336 340 341 338 338 338 337 339 338 338 339 339 341 339 339 337 336 336 335 335 335 335 331 334 336 333 330 331 333 335 333
306 305 308 307 311 315 319 313 313 321 328 329 331 332 331 330 330 331 336 339 336 337 338 337 337 336 337 335 336 336 336 336 338 336 336 335 335 335 336 333 333 335 335 333 333 332 332 330 330
305 305 303 305 307 312 313 307 313 323 326 326 328 329 330 331 331 335 337 336 337 334 332 337 334 334 335 335 334 334 334 335 335 335 335 335 335 336 336 333 333 334 332 331 330 330 329 329 329
305 301 301 301 306 308 307 305 314 322 325 325 327 330 330 332 334 336 335 334 334 333 333 334 335 334 334 334 334 333 333 333 334 336 335 335 334 334 337 336 336 335 332 329 327 327 328 327 327
300 301 301 301 303 304 306 305 314 320 324 324 327 329 329 330 330 334 333 334 334 334 334 334 334 335 335 333 334 332 331 330 329 330 331 332 332 332 334 334 335 334 332 331 330 327 327 325 323
303 302 301 303 304 303 304 305 311 317 322 322 324 326 326 327 329 332 333 333 333 333 332 333 333 335 333 330 328 327 324 324 326 327 329 330 329 329 331 329 332 334 332 332 333 329 326 320 323
304 301 301 303 304 304 301 303 311 315 318 320 322 324 324 326 326 327 329 331 331 331 332 333 334 335 332 329 325 324 323 323 324 326 327 327 326 328 329 331 329 330 326 329 328 327 320 319 320
302 301 300 301 302 301 300 299 305 312 315 317 321 325 325 325 323 324 326 328 330 330 332 333 335 335 331 328 326 326 326 324 322 323 323 324 323 323 326 328 329 329 327 321 325 325 324 315 317
300 303 302 300 299 296 299 294 300 304 311 314 317 320 321 322 324 324 325 325 328 329 330 330 332 331 329 326 324 324 320 318 318 317 317 318 319 319 320 321 323 326 326 325 324 325 325 324 316
302 302 300 299 298 297 297 295 297 304 304 310 315 318 320 322 323 322 320 319 322 317 316 321 322 322 320 320 320 316 316 314 314 314 316 319 319 317 316 318 318 319 319 324 328 328 327 324 323
302 301 298 299 298 294 295 296 297 303 305 309 314 317 319 320 318 312 313 313 314 314 314 315 316 317 318 317 317 316 314 313 311 312 311 311 312 313 315 316 317 317 318 319 324 327 324 325 321
305 301 294 292 293 292 296 296 300 304 306 311 313 316 317 312 310 309 310 311 313 312 312 313 314 315 316 315 314 314 313 313 311 310 309 310 309 310 312 315 315 315 317 319 321 323 326 323 324
299 299 295 286 289 291 296 295 301 306 306 307 310 313 309 308 308 308 309 310 310 311 312 312 313 313 313 313 312 313 312 310 309 310 309 308 308 309 311 311 312 313 313 315 319 320 322 322 324
300 299 299 295 293 292 296 298 304 306 305 306 307 307 306 305 306 307 308 309 310 311 312 312 312 312 312 312 312 311 310 310 309 310 310 309 310 309 310 310 310 310 311 312 315 316 315 316 317
301 301 296 298 289 287 293 293 297 302 304 304 305 305 304 305 305 306 308 309 310 311 311 312 312 310 311 311 310 309 309 309 309 309 308 309 309 309 308 306 307 309 309 309 311 313 317 315 313
300 299 296 298 296 290 289 294 302 303 305 306 306 305 304 305 306 307 308 308 310 311 311 311 310 309 309 309 309 308 308 308 308 306 304 305 306 307 306 306 306 306 307 309 308 309 311 311 311
302 299 299 296 293 294 293 294 303 303 303 304 305 304 305 306 307 307 307 309 310 310 310 309 309 308 308 308 308 307 308 308 307 304 305 305 304 305 305 306 307 306 307 308 308 306 307 308 310
Wind_Speed
4 4 0 2 0 2 4 2 1 2 1 2 3 7 11 9 5 6 2 3 7 7 9 12 11 12 11 10 9 9 9 9 10 10 11 11 10 9 8 7 7 7 8 7 7 6 6 6 6
6 3 1 1 3 6 4 1 4 4 1 2 1 3 6 7 5 3 2 3 4 5 6 8 9 9 10 8 7 7 7 8 9 10 10 9 8 7 6 5 5 5 6 5 4 4 4 3 3
5 1 2 3 2 5 5 4 3 2 2 1 2 6 4 4 3 4 3 6 5 3 3 7 7 8 9 9 8 8 8 9 10 9 9 8 7 6 5 3 2 2 3 2 2 1 1 1 0
3 3 3 5 5 5 2 7 5 6 3 1 3 5 2 2 2 7 4 4 4 6 3 7 6 6 7 8 8 8 7 7 7 8 8 9 8 7 7 5 4 2 2 4 4 4 5 4 3
1 1 4 4 3 2 2 6 7 5 2 4 2 2 3 3 3 5 5 4 5 6 6 6 5 4 3 3 2 3 5 5 4 5 5 6 6 7 6 6 5 4 5 6 6 6 7 6 6
2 0 3 6 3 3 5 7 8 4 4 6 5 4 1 4 2 5 4 5 4 6 6 7 8 7 6 6 6 5 5 2 1 1 1 3 4 5 6 6 6 6 7 8 7 8 8 7 7
3 2 3 2 5 5 6 7 2 6 6 6 6 5 2 2 4 2 6 7 8 7 6 6 6 6 7 6 5 4 2 4 3 2 3 3 5 6 7 7 8 8 9 10 9 10 9 9 9
3 2 3 2 6 5 7 5 3 5 5 7 3 5 5 4 7 5 7 8 9 9 8 7 5 5 5 4 7 6 6 4 4 5 6 5 5 6 7 6 9 10 11 12 12 11 10 10 9
2 1 3 4 6 7 9 6 2 2 8 3 2 3 6 12 8 7 7 8 7 8 7 7 7 6 5 6 6 3 3 3 4 4 3 5 5 6 7 5 9 11 12 13 14 12 11 10 10
1 1 4 4 7 10 15 9 10 6 6 4 6 8 12 11 9 7 5 5 6 7 8 6 6 6 6 4 4 2 2 1 2 4 5 4 5 5 7 8 9 11 12 13 14 14 11 10 6
2 2 1 4 6 16 14 13 6 12 9 11 16 14 12 12 8 6 5 5 6 6 5 6 6 5 3 4 2 2 1 2 3 4 4 3 3 3 4 4 4 5 6 5 6 4 4 6 5
3 0 1 6 6 13 14 11 9 7 6 7 11 15 13 10 8 6 5 5 6 4 5 6 6 5 4 2 2 2 1 1 2 3 3 2 2 3 4 4 6 5 5 6 4 4 3 5 5
1 3 4 6 9 8 9 6 6 4 2 12 15 14 12 10 7 5 5 6 7 6 5 5 5 4 3 2 2 2 2 2 2 2 2 2 2 1 1 1 1 2 3 5 5 4 4 4 4
4 6 7 6 7 5 9 5 2 2 4 14 14 12 9 7 7 8 7 6 6 5 4 4 5 4 4 4 3 2 1 2 1 1 1 2 1 1 1 1 1 1 1 2 3 4 4 4 4
4 5 7 7 4 4 5 3 2 3 7 11 10 9 9 7 7 7 5 5 5 5 4 4 5 4 4 3 3 3 3 3 2 2 4 4 3 3 3 2 1 1 2 3 3 3 3 4 4
3 4 7 4 1 4 5 15 2 5 9 10 10 8 8 8 8 5 4 4 4 2 1 4 4 4 4 4 3 3 3 3 3 3 3 5 5 4 3 4 4 4 3 4 4 5 4 5 5
5 4 4 4 3 4 5 8 7 9 10 11 10 9 8 8 7 6 7 4 2 2 3 4 5 5 5 4 3 4 4 3 3 1 2 2 1 1 1 1 1 1 2 3 4 5 5 5 6
3 4 4 5 3 6 11 17 10 12 12 13 11 9 9 8 8 7 6 6 6 5 5 5 4 5 5 6 5 5 5 5 4 3 3 6 4 5 4 3 3 4 3 2 0 1 2 4 6
7 4 1 2 3 3 3 9 11 13 13 12 10 10 8 8 7 7 8 8 8 6 6 6 6 5 5 6 6 5 5 5 4 4 5 7 6 8 7 7 5 6 6 7 6 5 5 3 1
3 2 3 2 3 4 4 5 5 11 11 10 11 10 11 11 11 12 11 9 7 6 7 8 8 7 5 4 4 4 5 6 6 6 5 6 7 9 9 10 8 7 6 7 8 7 6 5 3
2 2 1 4 5 1 4 2 3 7 8 9 11 12 11 13 13 13 12 10 8 9 10 10 10 8 6 6 6 5 6 6 7 8 9 9 10 10 10 10 10 10 8 8 8 7 7 8 5
1 1 4 5 4 7 5 3 2 2 12 13 14 15 14 14 15 13 11 10 9 10 9 11 11 10 7 6 6 7 7 8 8 8 8 10 12 12 11 10 11 12 10 10 11 8 8 7 7
2 3 2 2 2 3 3 5 4 1 8 14 14 16 15 15 13 12 10 10 8 5 6 6 6 5 5 5 6 6 8 8 8 9 12 12 11 13 14 12 12 11 10 12 12 11 9 6 7
2 2 3 2 1 3 3 4 3 2 4 7 13 15 15 12 7 1 3 3 5 4 4 4 5 4 6 7 9 10 11 12 11 13 12 12 12 12 14 14 11 11 12 13 12 13 12 9 9
3 4 3 1 0 2 2 4 3 4 6 7 12 14 10 4 2 2 4 5 4 3 4 5 5 6 8 10 11 11 11 12 14 14 12 14 12 12 13 13 12 10 11 12 12 11 11 11 8
4 2 2 4 4 6 1 2 2 1 1 2 6 5 5 3 0 2 2 3 4 4 5 6 7 10 12 11 11 10 12 10 11 11 11 11 11 11 13 13 14 13 12 11 11 9 9 8 8
3 1 2 4 1 4 2 2 6 5 4 3 6 6 5 3 3 1 3 5 6 6 7 7 9 11 12 12 11 13 13 14 12 13 12 10 12 11 13 13 12 12 13 12 11 8 8 4 4
2 7 2 1 3 4 2 4 3 7 9 5 6 6 4 4 4 4 5 6 7 7 7 8 10 13 13 12 14 13 14 14 14 13 13 14 14 13 12 12 12 12 12 10 10 9 9 7 4
3 2 4 1 2 3 5 3 2 4 6 9 8 6 4 5 5 5 6 5 6 7 9 11 13 15 14 14 15 15 15 15 14 12 13 13 13 13 13 12 11 11 9 10 7 7 7 6 5
2 1 1 2 3 0 3 7 2 3 4 3 7 4 2 3 5 6 5 6 7 9 11 14 14 15 15 15 16 15 15 14 13 12 13 13 14 12 12 13 12 11 12 8 9 9 8 7 10
Wind_Direction
146 118 148 235 216 67 73 99 317 162 311 295 345 42 72 39 4 89 50 63 123 140 154 158 153 149 153 149 140 133 123 117 113 107 103 100 98 92 89 88 87 85 84 83 79 72 70 74 82
124 131 198 94 62 78 89 216 196 162 345 149 294 10 55 68 44 79 144 104 124 137 147 153 144 144 148 146 133 115 108 105 104 105 104 102 99 97 95 94 95 96 91 87 82 80 71 70 64
151 268 302 60 61 60 97 202 136 176 144 318 88 53 9 28 25 14 80 114 107 88 135 138 143 142 146 149 143 134 128 124 124 122 121 119 118 118 117 130 140 119 113 118 134 129 138 201 209
167 163 99 44 86 66 54 154 157 134 141 43 71 77 142 329 344 5 51 63 75 81 86 119 129 136 147 154 153 150 150 151 142 142 142 143 148 158 166 178 193 201 219 224 213 217 221 225 233
87 80 67 72 48 44 94 136 142 100 127 65 13 114 81 84 27 53 62 59 68 89 78 100 75 76 103 129 145 159 159 162 165 167 163 163 175 186 189 203 217 223 234 252 259 249 243 241 248
104 329 34 80 76 96 125 140 139 99 87 106 110 118 60 17 41 53 76 85 83 75 84 73 71 68 65 55 42 10 356 359 359 313 245 215 229 245 243 240 244 246 253 257 264 276 278 273 261
80 54 72 82 116 125 146 139 143 118 118 106 123 120 342 240 108 70 81 81 67 59 64 70 62 70 72 75 85 96 54 327 311 268 231 262 277 271 277 277 273 264 257 260 259 252 257 262 263
96 94 123 151 153 114 149 125 134 99 87 118 181 150 168 121 113 100 84 75 64 47 53 46 48 70 82 69 54 44 22 359 314 306 302 294 270 257 256 282 254 276 274 264 258 256 252 253 258
159 98 94 141 174 127 155 139 154 73 138 135 173 156 75 112 113 113 112 98 77 57 41 31 47 83 83 67 65 81 56 16 335 300 300 278 281 292 289 306 293 290 287 284 273 262 253 253 245
326 210 169 156 156 156 162 159 138 172 157 119 132 94 116 121 135 141 139 111 82 60 44 28 57 85 89 75 64 98 102 5 338 284 278 277 281 285 298 298 297 287 284 277 270 258 256 252 256
133 255 108 152 178 153 156 152 157 155 174 164 170 149 148 148 157 136 113 89 99 88 69 59 79 64 95 45 32 31 28 19 353 348 317 297 309 298 291 301 309 315 311 304 289 284 258 270 274
227 310 4 131 149 150 160 138 145 202 128 142 150 150 156 165 158 146 121 119 133 126 97 86 93 98 91 77 54 57 41 67 68 76 95 111 80 40 4 343 342 336 341 321 322 309 307 261 259
7 83 70 99 112 103 132 131 139 186 95 136 141 155 169 170 148 128 132 143 136 123 117 108 114 114 122 122 74 51 78 84 66 52 59 78 97 99 156 187 275 319 332 340 334 327 326 290 268
44 101 115 66 94 79 141 124 188 181 171 147 155 161 169 165 157 145 172 139 121 126 121 100 88 90 85 62 47 41 32 149 177 158 209 169 184 190 202 195 187 129 32 12 354 16 0 349 333
99 103 102 42 54 84 138 149 188 138 173 153 166 163 154 162 168 172 165 148 145 144 139 126 107 91 71 61 22 10 352 352 10 6 344 341 340 347 328 323 317 13 59 80 82 48 39 22 352
71 97 163 24 66 145 238 223 164 159 176 163 162 159 158 165 173 170 214 195 172 148 90 56 50 45 34 23 3 347 357 348 7 16 1 9 11 17 13 358 3 14 31 44 40 39 46 21 3
41 91 116 107 52 172 222 243 191 175 184 168 166 165 166 162 178 190 224 250 239 286 334 20 19 15 352 338 314 306 317 312 316 326 325 313 265 239 178 151 117 59 39 52 46 41 26 44 27
75 116 89 133 70 202 214 247 184 184 187 177 170 167 181 177 186 202 233 269 283 296 318 328 326 332 319 302 292 289 287 273 277 280 296 301 300 291 273 224 205 207 205 226 98 59 39 32 18
120 112 104 180 171 273 235 272 214 184 189 185 181 182 180 196 202 242 251 263 276 283 292 291 298 297 301 311 318 311 305 313 304 304 317 302 315 305 297 288 255 244 252 265 259 275 275 251 307
106 100 38 275 355 315 353 20 148 191 200 201 190 194 203 212 227 240 244 253 266 293 294 281 275 289 319 317 329 317 314 301 302 306 328 323 339 320 303 297 290 272 267 261 261 257 274 277 260
51 35 291 304 347 79 318 148 173 194 202 201 207 213 218 227 237 248 260 267 286 284 285 289 294 310 324 325 304 294 282 268 296 318 322 332 329 315 308 294 291 292 287 276 268 264 253 272 274
285 259 283 287 290 317 346 302 191 210 218 221 214 215 223 227 238 254 264 273 270 276 287 301 304 310 308 312 300 311 308 308 325 313 315 315 318 320 316 305 296 288 279 272 269 256 242 244 264
16 6 8 359 150 216 39 271 100 223 225 223 218 219 223 233 244 265 298 293 278 320 341 336 329 327 350 357 358 343 334 323 319 312 315 310 306 312 311 305 300 292 281 273 259 257 238 232 249
335 243 68 92 175 194 24 312 130 272 293 224 212 218 221 233 250 317 326 330 330 350 348 6 359 358 356 351 347 343 333 329 322 319 311 307 308 306 305 305 305 301 293 279 270 262 248 236 235
14 350 326 211 337 348 23 253 350 297 254 236 208 209 215 201 173 304 318 316 341 342 352 338 349 335 341 340 337 337 331 322 309 308 305 305 299 297 297 301 303 302 300 286 272 261 246 239 225
49 349 311 310 311 324 199 232 67 223 350 294 252 202 144 142 42 292 310 330 325 326 319 315 330 329 333 328 325 318 311 305 302 299 301 295 296 295 300 288 286 289 295 298 279 257 248 229 239
126 251 56 113 120 259 307 227 242 209 199 165 137 141 139 150 157 268 261 278 301 299 300 316 324 320 319 319 316 315 313 308 300 295 293 291 292 290 290 294 289 289 285 282 283 256 250 217 225
292 125 213 114 286 293 228 269 290 217 222 190 178 174 172 173 213 257 289 286 278 285 302 304 315 325 320 314 316 315 312 307 302 296 293 292 292 293 290 289 288 291 284 282 273 269 239 199 192
155 185 67 47 309 285 301 304 176 264 284 248 206 186 190 204 224 284 302 303 283 291 307 319 325 323 315 317 316 311 308 305 297 292 288 286 288 288 289 286 286 283 278 278 256 247 247 224 201
343 26 178 227 186 147 309 285 162 281 306 236 182 187 200 226 280 299 308 311 300 309 318 323 323 316 316 316 311 306 304 301 298 289 289 288 282 281 276 281 277 279 283 277 270 244 230 226 228